This is the latest recevied weather packets stored in our database for station/object VE3DVC. If no packets are shown the sender has not sent any weather packets the latest 10 day(s).
| Time | Temp. | Humidity | Pressure | Rain* | Wind** | Luminosity | Snow |
|---|---|---|---|---|---|---|---|
| 1777247387 | 14.44° C | 55% | 1021.2 hPa | 0 mm | - | - | - |
| 1777246667 | 14.44° C | 54% | 1021 hPa | 0 mm | - | - | - |
| 1777245947 | 15° C | 53% | 1021.2 hPa | 0 mm | - | - | - |
| 1777245227 | 15° C | 53% | 1021 hPa | 0 mm | - | - | - |
| 1777244507 | 15.56° C | 52% | 1021.2 hPa | 0 mm | - | - | - |
| 1777243096 | 16.11° C | 53% | 1021 hPa | 0 mm | - | - | - |
| 1777242376 | 16.11° C | 53% | 1021.1 hPa | 0 mm | - | - | - |
| 1777241656 | 16.11° C | 55% | 1021.2 hPa | 0 mm | - | - | - |
| 1777240935 | 16.11° C | 59% | 1021 hPa | 0 mm | - | - | - |
| 1777240216 | 16.11° C | 58% | 1020.9 hPa | 0 mm | - | - | - |
| 1777239496 | 16.11° C | 60% | 1020.8 hPa | 0 mm | - | - | - |
| 1777238776 | 15.56° C | 61% | 1020.8 hPa | 0 mm | - | - | - |
| 1777238056 | 16.11° C | 60% | 1020.6 hPa | 0 mm | - | - | - |
| 1777237336 | 16.11° C | 62% | 1020.6 hPa | 0 mm | - | - | - |
| 1777236615 | 15.56° C | 64% | 1020.5 hPa | 0 mm | - | - | - |
| 1777235517 | 15.56° C | 62% | 1020.5 hPa | 0 mm | - | - | - |
| 1777234797 | 15.56° C | 64% | 1020.6 hPa | 0 mm | - | - | - |
| 1777234077 | 15.56° C | 65% | 1020.5 hPa | 0 mm | - | - | - |
| 1777233357 | 15.56° C | 65% | 1020.5 hPa | 0 mm | - | - | - |
| 1777232637 | 15.56° C | 64% | 1020.7 hPa | 0 mm | - | - | - |
| 1777231917 | 15.56° C | 66% | 1020.8 hPa | 0 mm | - | - | - |
| 1777231197 | 15.56° C | 67% | 1021 hPa | 0 mm | - | - | - |
| 1777230477 | 15° C | 66% | 1021.1 hPa | 0 mm | - | - | - |
| 1777229424 | 15° C | 67% | 1021.1 hPa | 0 mm | - | - | - |
| 1777228704 | 15° C | 67% | 1021 hPa | 0 mm | - | - | - |
* Rain latest hour (hover to see other rain measurements)
** Current wind speed in m/s (hover to see current wind gust speed)